Weather in Birofel'd

Russia / Jewish Autonomous Oblast     48°25′13″N   132°47′49″E
temp.,
°C
wind,
m/s
gust,
m/s
humid.,
%
clouds,
%
prec.,
mm/h
press.,
hPa
HPBL,
m
21 april, wed
wed2101:00+3w47320 0.0 1016125
04:00+2w47331 0.0 1017101
07:00+3w34325 0.0 101860
10:00+9w46235 0.0 1018392
13:00+15w67200 0.0 10181106
16:00+18wsw45190 0.0 10161250
19:00+18ssw34240 0.0 101697
22:00+14s22310 0.0 101711
22 april, thu
thu2201:00+11ene33350 0.0 101918
04:00+7ne46550 0.0 1021103
07:00+6ene36585 0.0 1022135
10:00+12e45395 0.0 1021385
13:00+19se35269 0.0 10201037
16:00+24ssw56215 0.0 10171690
19:00+23sw3328100 0.0 101748
22:00+18wsw1236100 0.0 101811
23 april, fri
fri2301:00+16wsw2240100 0.0 101912
04:00+15wsw2241100 0.0 101815
07:00+14wnw1246100 0.0 101914
10:00+17wsw1240100 0.0 1019256
13:00+18w7741100 0.0 1019951
16:00+17wnw8843100 0.0 1019987
19:00+10wnw91264100 0.1 1021513
22:00+8nw676895 0.3 1022628
24 april, sat
sat2401:00+8nw5850100 0.0 1022772
04:00+5nw683946 0.1 1023533
07:00+3nw68420 0.0 1024478
10:00+6nnw57290 0.0 10241216
13:00+10nw68200 0.0 10212147
16:00+11nw101421100 0.0 10193277
19:00+10nw101424100 0.0 10193616
22:00+7nw813271 0.0 1019694
25 april, sun
sun2501:00+5wnw712380 0.0 1019558
04:00+4nw61143100 0.0 1018361
07:00+3wnw51047100 0.0 1017570
10:00+7nw683785 0.0 10161360
13:00+11nw71025100 0.0 10132941
16:00+12nnw9102399 0.0 10122979
19:00+12nw7102412 0.0 10122809
22:00+8wnw35355 0.0 101370